Das Wetter in  D-61279 Heinzenberg / Taunus





Wetter Minimum- & Maximum-Werte im Januar 2008

Standort: Heinzenberg / Taunus - Höhe 297 m         8 24' 1" Ost 50 21' 51" Nord
(   3-stündige Aktualisierung    letzte Aktualisierung um 19:04 am 31.01.2008  )


Messgrösse

Minimum

Maximum

Durchschnitt

Temperatur West /
Luftfeuchte West
Anklicken für Monats-Diagramm

-5,5 C

07:06
02.01.2008

44 %

15:05
25.01.2008

13,3 C

14:28
11.01.2008

95 %

03:50
01.01.2008

Temp

4,2 C

Feuchte

83 %

Temperatur Ost /
Luftfeuchte Ost
Anklicken für Monats-Diagramm

-5,0 C

06:56
02.01.2008

--

--
--

12,7 C

14:18
11.01.2008

--

--
--

4,1 C

--

Luftdruck Anklicken für Monats-Diagramm

995,4 hPa

23:47
15.01.2008

1042,0 hPa

09:55
25.01.2008

1019,0 hPa

Taupunkt

-6,4 C

07:06
02.01.2008

9,2 C

00:10
20.01.2008

1,5 C

Windchill
( gefühlte Temperatur )

-17,0 C

06:36
03.01.2008

13,2 C

15:18
11.01.2008

-0,6 C

Windgeschwindigkeit /
Windrichtung
Anklicken für Monats-Diagramm

---

53,2 km/h / W-SW

23:44
17.01.2008

14,2 km/h
W-SW

Helligkeit /
Sonnenschein
Anklicken für Monats-Diagramm
Anklicken für Monats-Diagramm

Sonnenschein:

53:48 Stunden

Max: 7:25 Std am
13.01.2008

55,2 klux

13:23
23.01.2008

10,1 klux

Solarstrahlung Anklicken für Monats-Diagramm

---

378 W/m

13:23
23.01.2008

78 W/m

Regenmenge
    Januar 2008
Anklicken für Monats-Diagramm

Insgesamt 7,8 l/m

in 60:57 Stunden
an 20 Tagen

1,5 l/m

23:23
05.01.2008

Gesamtmenge

7,8 l/m

Regen-Tage
    Januar 2008
Anklicken für Monats-Diagramm

>   0 mm/Tag

>   2 mm/Tag

>   5 mm/Tag

> 10 mm/Tag

> 20 mm/Tag

20 Tage     
0 Tage     
0 Tage     
0 Tage     
0 Tage     

Eisige Tage Januar 2008 / 2007

Tmin ≤ -10C     

0 Tage

/

  1 Tag

Eistage Januar 2008 / 2007

Tmax <     0C     

2 Tage

/

3 Tage

Frosttage Januar 2008 / 2007

Tmin ≤     0C     

17 Tage

/

8 Tage

Kalte Tage Januar 2008 / 2007

Tmax <   10C     

25 Tage

/

21 Tage

Warme Tage Januar 2008 / 2007

Tmax ≥   20C     

0 Tage

/

0 Tage

Sommertage Januar 2008 / 2007

Tmax ≥   25C     

0 Tage

/

0 Tage

Heisse Tage Januar 2008 / 2007

Tmax ≥   30C     

0 Tage

/

0 Tage


Monatsdiagramm Januar 2008

Die Kurven zeigen den Durchschnittswert des jeweiligen Tages an


Wetter-Monatsübersicht Januar 2008
Datum
  Temperatur
   Luftdruck
   Wind
  Regen
   Luftfeuchte
   Helligkeit

Sonnen-
schein


Temp.

Min.
Temp.

Max.
Temp.


Luftdruck

Min.
Luftdruck

Max.
Luftdruck

-Geschw.
Haupt-Richtg.

Max.
Wind

Menge /
Dauer


Feuchte

Min.
Feuchte

Max.
Feuchte


Helligkeit

Max.
Helligkeit

1.
Januar
-1,7 C-3,0 C
23:31
-0,6 C
00:00
1027,5 hPa1025,8 hPa
21:35
1029,7 hPa
00:50
0,5 km/h
O
9,8 km/h
13:40  
---
94 %94 %
00:00
95 %
03:50
6,5 klux16,4 klux
11:05
5 Min 
2.
Januar
-2,7 C-5,5 C
07:06
-0,3 C
15:06
1021,9 hPa1015,2 hPa
23:41
1026,0 hPa
04:41
2,9 km/h
O
18,2 km/h
11:36  
---
90 %80 %
22:31
94 %
00:01
8,2 klux22,0 klux
12:01
1:40 Std 
3.
Januar
-1,0 C-2,3 C
08:06
0,1 C
14:41
1010,8 hPa1008,8 hPa
14:41
1015,2 hPa
00:01
7,5 km/h
O-SO
31,5 km/h
06:36  
---
76 %72 %
14:31
80 %
00:01
9,1 klux31,2 klux
12:06
1:20 Std 
4.
Januar
-0,7 C-3,3 C
08:57
2,4 C
13:42
1013,3 hPa1011,0 hPa
00:02
1015,1 hPa
21:12
3,3 km/h
O-SO
31,1 km/h
23:42  
0,2 l/m
1:46 Stunden
78 %69 %
13:52
87 %
22:38
15,1 klux39,5 klux
12:52
3:11 Std 
5.
Januar
4,0 C-0,4 C
01:47
6,4 C
09:12
1008,8 hPa1005,1 hPa
23:58
1013,0 hPa
01:47
15,1 km/h
SW
41,9 km/h
11:27  
1,5 l/m
6:51 Stunden
87 %78 %
05:32
93 %
23:43
3,8 klux13,3 klux
13:22
--- 
6.
Januar
3,5 C-2,0 C
23:59
6,0 C
13:13
1011,9 hPa1004,1 hPa
02:43
1019,2 hPa
21:08
10,7 km/h
W
28,6 km/h
12:23  
1,2 l/m
4:50 Stunden
89 %81 %
15:28
95 %
05:53
12,1 klux44,1 klux
13:03
2:45 Std 
7.
Januar
4,6 C-2,0 C
00:04
7,7 C
12:29
1014,2 hPa1008,2 hPa
07:19
1018,7 hPa
23:40
23,7 km/h
W-SW
50,3 km/h
14:24  
0,9 l/m
5:25 Stunden
85 %71 %
14:14
94 %
06:49
12,8 klux46,6 klux
11:09
2:56 Std 
8.
Januar
3,5 C-0,9 C
23:56
7,3 C
13:25
1022,0 hPa1018,7 hPa
00:00
1024,1 hPa
08:55
9,5 km/h
W-SW
47,0 km/h
00:00  
0,4 l/m
1:00 Stunden
87 %78 %
13:15
91 %
00:10
17,5 klux40,8 klux
13:05
5:11 Std 
9.
Januar
3,1 C-1,9 C
02:36
6,2 C
14:06
1016,8 hPa1014,2 hPa
14:06
1020,0 hPa
23:57
9,0 km/h
W-SW
39,8 km/h
14:21  
0,5 l/m
3:25 Stunden
89 %82 %
12:56
94 %
03:26
7,5 klux35,3 klux
12:26
25 Min 
10.
Januar
4,6 C0,9 C
01:52
7,6 C
20:37
1017,0 hPa1013,0 hPa
23:38
1020,1 hPa
01:52
7,8 km/h
SW
29,1 km/h
11:17  
0,2 l/m
5 Minuten
89 %82 %
23:58
93 %
02:12
12,1 klux43,4 klux
11:37
2:45 Std 
11.
Januar
9,0 C7,0 C
05:43
13,3 C
14:28
1006,6 hPa1000,2 hPa
23:39
1013,0 hPa
00:13
15,6 km/h
SW
32,6 km/h
20:43  
---
76 %60 %
23:34
88 %
05:58
15,1 klux47,6 klux
13:18
3:20 Std 
12.
Januar
5,9 C0,7 C
23:49
10,5 C
01:09
1008,2 hPa999,2 hPa
01:29
1019,1 hPa
23:49
18,4 km/h
W-SW
38,3 km/h
01:09  
---
40 Minuten
77 %61 %
00:04
87 %
16:14
4,5 klux27,8 klux
10:34
10 Min 
13.
Januar
0,7 C-3,1 C
09:29
7,9 C
14:54
1018,7 hPa1013,9 hPa
23:50
1021,7 hPa
09:29
5,5 km/h
O-SO
26,1 km/h
21:09  
---
85 %65 %
14:54
92 %
10:14
23,5 klux40,9 klux
12:39
7:25 Std 
14.
Januar
3,5 C-0,5 C
04:10
5,4 C
18:35
1011,3 hPa1010,2 hPa
22:20
1013,9 hPa
00:00
10,8 km/h
SW
24,8 km/h
16:45  
---
84 %77 %
13:15
91 %
04:30
5,7 klux14,3 klux
12:35
--- 
15.
Januar
6,6 C4,7 C
03:56
8,2 C
18:16
1004,7 hPa995,4 hPa
23:47
1010,3 hPa
00:01
23,5 km/h
SW
45,0 km/h
20:16  
---
41 Minuten
79 %68 %
18:26
88 %
06:41
9,7 klux44,1 klux
11:46
1:35 Std 
16.
Januar
6,9 C4,3 C
19:22
8,3 C
13:12
999,1 hPa995,4 hPa
00:12
1006,1 hPa
23:58
20,2 km/h
W-SW
50,8 km/h
00:02  
0,2 l/m
4:16 Stunden
80 %70 %
15:32
88 %
23:38
6,1 klux20,4 klux
12:37
5 Min 
17.
Januar
5,6 C4,5 C
01:48
7,2 C
15:18
1009,8 hPa1006,0 hPa
23:54
1013,3 hPa
09:48
14,4 km/h
W-SW
53,2 km/h
23:44  
0,5 l/m
3:37 Stunden
86 %79 %
19:38
92 %
23:44
10,6 klux40,9 klux
11:53
1:50 Std 
18.
Januar
7,5 C5,6 C
00:04
10,0 C
23:55
1014,7 hPa1006,0 hPa
01:09
1019,3 hPa
18:04
23,3 km/h
W-SW
40,2 km/h
23:55  
0,5 l/m
8:16 Stunden
86 %75 %
13:44
92 %
02:19
6,3 klux17,4 klux
11:39
--- 
19.
Januar
11,5 C10,0 C
00:00
12,4 C
15:35
1021,0 hPa1017,7 hPa
03:55
1024,1 hPa
21:40
33,8 km/h
W
47,7 km/h
07:25  
0,3 l/m
3:50 Stunden
83 %77 %
15:05
91 %
21:35
2,8 klux9,7 klux
12:45
--- 
20.
Januar
11,0 C10,3 C
23:56
11,8 C
00:10
1023,1 hPa1021,8 hPa
15:20
1024,1 hPa
08:25
32,8 km/h
W
50,4 km/h
10:00  
0,2 l/m
15 Minuten
81 %77 %
15:05
87 %
03:50
4,5 klux15,0 klux
11:45
--- 
21.
Januar
9,1 C7,2 C
20:36
10,3 C
00:01
1016,1 hPa1006,7 hPa
23:52
1022,1 hPa
01:26
33,2 km/h
W
48,3 km/h
13:46  
0,3 l/m
2:55 Stunden
79 %70 %
14:36
88 %
08:16
8,0 klux30,1 klux
12:06
10 Min 
22.
Januar
4,3 C-1,8 C
23:58
8,6 C
00:02
1018,3 hPa1004,7 hPa
02:42
1032,9 hPa
23:58
18,8 km/h
NW
51,5 km/h
01:57  
0,6 l/m
4:25 Stunden
78 %59 %
15:22
90 %
06:57
17,2 klux52,8 klux
12:32
2:55 Std 
23.
Januar
1,6 C-3,3 C
05:33
7,1 C
13:38
1032,4 hPa1029,9 hPa
23:44
1034,2 hPa
05:33
6,5 km/h
W-SW
27,3 km/h
13:03  
---
20 Minuten
79 %60 %
13:48
91 %
09:53
15,0 klux55,2 klux
13:23
2:50 Std 
24.
Januar
6,2 C4,3 C
23:55
8,2 C
13:49
1029,3 hPa1027,4 hPa
13:49
1035,2 hPa
23:55
13,0 km/h
W-SW
29,3 km/h
21:09  
0,3 l/m
1:55 Stunden
80 %75 %
00:04
91 %
20:59
4,8 klux17,3 klux
11:29
--- 
25.
Januar
3,3 C-0,9 C
08:55
8,5 C
14:50
1038,6 hPa1035,2 hPa
00:00
1042,0 hPa
09:55
12,9 km/h
W
33,0 km/h
12:50  
---
75 %44 %
15:05
91 %
09:10
23,7 klux47,9 klux
12:35
6:50 Std 
26.
Januar
5,8 C4,5 C
01:16
9,4 C
14:11
1034,6 hPa1031,7 hPa
16:31
1037,3 hPa
01:16
20,7 km/h
W
41,2 km/h
14:51  
---
73 %58 %
15:31
80 %
08:01
17,7 klux46,0 klux
13:26
4:20 Std 
27.
Januar
4,5 C1,5 C
07:57
6,5 C
22:48
1030,9 hPa1028,2 hPa
06:42
1033,9 hPa
21:17
20,5 km/h
W
35,4 km/h
09:32  
---
83 %75 %
00:01
89 %
18:42
2,6 klux6,8 klux
09:17
--- 
28.
Januar
5,8 C4,5 C
23:59
6,7 C
12:33
1034,4 hPa1032,9 hPa
16:23
1036,1 hPa
07:58
1,6 km/h
W
16,7 km/h
00:33  
---
1:10 Stunden
91 %88 %
00:03
93 %
06:48
3,75 klux9,33 klux
12:13
--- 
29.
Januar
3,8 C-1,0 C
23:55
6,9 C
12:54
1029,6 hPa1025,5 hPa
22:50
1033,1 hPa
01:09
0,8 km/h
SO
12,9 km/h
13:19  
---
84 %71 %
15:04
92 %
00:29
10,7 klux36,0 klux
12:09
15 Min 
30.
Januar
0,5 C-1,4 C
08:20
2,4 C
12:15
1024,5 hPa1023,0 hPa
12:15
1027,4 hPa
23:56
4,1 km/h
W
20,1 km/h
10:25  
0,3 l/m
5:15 Stunden
91 %88 %
00:00
94 %
16:40
3,2 klux36,2 klux
12:00
5 Min 
31.
Januar
0,7 C-1,3 C
07:36
2,3 C
14:16
1019,8 hPa1006,5 hPa
23:57
1027,5 hPa
05:11
19,1 km/h
W-SW
49,1 km/h
22:47  
---
86 %76 %
14:31
94 %
00:01
13,4 klux42,8 klux
12:36
1:40 Std 



Januar
2008

Temperatur

  

Luftdruck

  

Wind

  

Regen

  

Luftfeuchte

  

Helligkeit

Sonnen-
schein

Min

Max

Min

Max

Max

Max

Min

Max

Max

Max

4,2 C

-5,5 C

07:06 Uhr
02.01.2008

13,3 C

14:28 Uhr
11.01.2008

1019,0 hPa

995,4 hPa

23:47 Uhr
15.01.2008

1042,0 hPa

09:55 Uhr
25.01.2008

14,2 km/h

W-SW

53,2 km/h

23:44 Uhr
17.01.2008

1,5 l/m

6:51 Stunden
05.01.2008

83 %

44 %

15:05 Uhr
25.01.2008

95 %

03:50 Uhr
01.01.2008

10,1 klux

55,2 klux

13:23 Uhr
23.01.2008

7:25 Std

am
13.01.2008

Gesamt

Gesamt

7,8 l/m

20 Tage
60:57 h

53:48 Std


Wetter-Diagramme Januar 2008     Heinzenberg / Taunus   
TemperaturLuftfeuchte
SolarstrahlungLuftdruck
HelligkeitSonnenschein
RegenmengeRegendauer
Wind-GeschwindigkeitWind-Richtung